Location: Asheville, NC
(35.6000°N, 82.5500°W)
Time: 02:44:54
(UTC-05:00)

ISS - Pass Details

Date: 10 February 2018
Orbit: 403 x 407 km, 51.6° (Epoch: 19 February)

Event Time Altitude Azimuth Distance (km) Brightness Sun altitude
Rises 20:29:15 0° 303° (WNW) 2,313 0.9 -29.3°
Reaches altitude 10° 20:31:27 10° 293° (WNW) 1,451 -0.2 -29.8°
Enters shadow 20:31:57 13° 289° (WNW) 1,269 -0.5 -29.9°
